Location: Amsterdam
(30.7274°N, 84.4357°W)
Time: 20:20:13
(UTC+00:00)

Tiros 1 despin weight - Pass Details

Date: 26 February 2026
Orbit: 556 x 593 km, 48.2° (Epoch: 3 March)

Event Time Altitude Azimuth Distance (km) Brightness Sun altitude
Rises 22:14:46 0° 323° (NW) 2,736 ? 15.7°
Reaches altitude 10° 22:17:37 10° 342° (NNW) 1,836 ? 15.1°
Maximum altitude 22:20:33 18° 27° (NNE) 1,384 ? 14.5°
Drops below altitude 10° 22:23:29 10° 72° (ENE) 1,832 ? 13.9°
Sets 22:26:19 0° 91° (E) 2,727 ? 13.3°
